Ogden, UT

9:48 PM MST on November 19, 2017 (GMT -0700)
Ogden-Hinckley

Weather History for KOGD - February, 2014

Change the Weather History Date:

Sunday, February 16, 2014

  Actual Average Record
Temperature  
Mean Temperature 41 °F -  
Max Temperature 50 °F 42 °F 60 °F (1947)
Min Temperature 32 °F 24 °F 1 °F (1966)
Degree Days  
Heating Degree Days 24    
Moisture  
Dew Point 26 °F    
Average Humidity 52    
Maximum Humidity 67    
Minimum Humidity 39    
Precipitation  
Precipitation 0.00 in - - ()
Sea Level Pressure  
Sea Level Pressure 29.93 in    
Wind  
Wind Speed 6 mph (NW)    
Max Wind Speed 28 mph    
Max Gust Speed 40 mph    
Visibility 10 miles    
Events Rain    
Averages and records for this station are not official NWS values.
T = Trace of Precipitation, MM = Missing Value Source: NWS Daily Summary

Daily Weather History Graph

Daily Weather History Graph

Search for Another Location

Airport or City:

Trip Planner

Search our weather history database for the weather conditions in past years. The results will help you decide how hot, cold, wet, or windy it might be!

Date:

Astronomy

Feb. 16, 2014 Rise Set
Actual Time 7:21 AM MST 6:03 PM MST
Civil Twilight 6:53 AM MST 6:31 PM MST
Nautical Twilight 6:20 AM MST 7:04 PM MST
Astronomical Twilight 5:48 AM MST 7:36 PM MST
Moon 8:05 PM MST (2/16) 7:51 AM MST (2/16)
Length of Visible Light 11h 38m
Length of Day
10h 42m
Full, 97% of the Moon is Illuminated
Feb 16
Full
Feb 22
Last Quarter
Mar 1
New
Mar 8
First Quarter
Mar 16
Full

Hourly Weather History & Observations

Time (MST) Temp. Windchill Dew Point Humidity Pressure Visibility Wind Dir Wind Speed Gust Speed Precip Events Conditions
12:53 AM 50.0 °F - 28.9 °F 44% 29.78 in 10.0 mi Calm Calm - N/A   Clear
1:53 AM 48.9 °F - 28.0 °F 44% 29.77 in 10.0 mi Calm Calm - N/A   Mostly Cloudy
2:53 AM 48.9 °F - 28.0 °F 44% 29.75 in 10.0 mi Calm Calm - N/A   Scattered Clouds
3:53 AM 46.0 °F 43.1 °F 30.0 °F 54% 29.74 in 10.0 mi East 5.8 mph - N/A   Overcast
4:53 AM 46.0 °F 42.5 °F 30.0 °F 54% 29.75 in 10.0 mi SW 6.9 mph - N/A   Mostly Cloudy
5:53 AM 46.0 °F 43.9 °F 28.0 °F 50% 29.73 in 10.0 mi South 4.6 mph - N/A   Clear
6:53 AM 46.0 °F 42.5 °F 27.0 °F 47% 29.71 in 10.0 mi South 6.9 mph - N/A   Clear
7:53 AM 48.0 °F - 26.1 °F 42% 29.72 in 10.0 mi South 6.9 mph - N/A   Partly Cloudy
8:53 AM 50.0 °F - 26.1 °F 39% 29.73 in 10.0 mi WSW 5.8 mph - N/A   Overcast
9:53 AM 46.9 °F - 30.9 °F 54% 29.77 in 10.0 mi NW 3.5 mph - 0.00 in   Overcast
10:53 AM 48.9 °F - 30.9 °F 50% 29.79 in 10.0 mi WNW 6.9 mph - 0.00 in   Mostly Cloudy
11:53 AM 50.0 °F - 30.9 °F 48% 29.82 in 10.0 mi West 13.8 mph - N/A   Overcast
12:13 PM 41.0 °F 30.2 °F 30.0 °F 65% 29.90 in 10.0 mi North 27.6 mph 40.3 mph 0.00 in Rain Light Rain
12:53 PM 39.0 °F 28.8 °F 28.9 °F 67% 29.91 in 10.0 mi North 21.9 mph 31.1 mph 0.00 in Rain Light Rain
1:53 PM 44.1 °F 36.2 °F 28.0 °F 53% 29.94 in 10.0 mi North 18.4 mph - 0.00 in   Overcast
2:53 PM 41.0 °F 33.9 °F 24.1 °F 51% 29.99 in 10.0 mi North 12.7 mph - 0.00 in   Overcast
3:53 PM 43.0 °F 35.4 °F 24.1 °F 47% 30.03 in 10.0 mi NNW 16.1 mph - N/A   Scattered Clouds
4:53 PM 42.1 °F 36.1 °F 24.1 °F 49% 30.07 in 10.0 mi NNW 10.4 mph - N/A   Overcast
5:53 PM 39.9 °F 33.4 °F 21.9 °F 49% 30.12 in 10.0 mi North 10.4 mph - N/A   Clear
6:53 PM 37.0 °F 32.4 °F 21.9 °F 54% 30.17 in 10.0 mi NNE 5.8 mph - N/A   Clear
7:53 PM 37.0 °F 33.3 °F 19.0 °F 48% 30.21 in 10.0 mi NE 4.6 mph - N/A   Partly Cloudy
8:53 PM 35.1 °F - 19.9 °F 54% 30.22 in 10.0 mi Calm Calm - N/A   Clear
9:53 PM 32.0 °F - 21.0 °F 64% 30.25 in 10.0 mi Calm Calm - N/A   Clear
10:53 PM 32.0 °F 23.6 °F 21.0 °F 64% 30.25 in 10.0 mi SSE 10.4 mph - N/A   Clear
11:53 PM 33.1 °F 24.9 °F 19.9 °F 59% 30.24 in 10.0 mi SSE 10.4 mph - N/A   Clear